CAPE
98 1 0 40 205 276 96 103 133 98 153 159 396 345 154 195 216 460 923 740 486 1306 1304 1155 2162 1983 1971 2229 2631 3024 3350 3169 2832 2845 2860 2925 2908 2947 2733 2620 2831 2603 2753 2340 1683 1817 1608 1499 1489
0 0 0 1 116 53 50 0 0 1 42 78 394 301 165 179 892 922 1086 746 781 1703 1433 899 2114 2165 1884 2118 2407 2836 3312 3401 3258 3143 3177 3035 3088 2913 2789 2855 2709 2556 2752 2519 2072 1663 1730 1668 1618
0 0 0 0 22 10 3 0 0 1 34 60 218 113 105 743 1051 1179 1187 1020 1062 1729 1440 1663 2458 2402 2094 1932 2159 2461 2843 3173 3225 3171 3167 3049 3004 3050 2983 2924 2833 2541 2656 2441 2067 1922 2063 1708 1568
0 0 0 11 0 0 0 0 0 11 288 180 297 183 293 864 1297 1776 1526 1244 1660 1575 1517 2195 2530 2347 2053 1883 1988 2236 2335 2673 2893 2974 3036 2995 2902 3007 3004 2851 2829 2518 2358 2135 1978 2111 1728 1486 1450
0 0 0 0 0 0 0 0 20 153 265 274 450 199 516 1896 2118 2070 1928 1499 1499 1669 1750 2038 2643 2147 1868 1908 1913 2082 2392 2571 2619 2500 2511 2607 2755 2755 2704 2642 2440 2288 2227 2082 1931 2139 2146 1944 1476
0 0 4 0 0 0 0 0 1 218 364 609 374 309 710 2007 2364 2374 2219 1928 1754 1891 1808 2205 2492 2402 2235 1901 2026 2251 2553 2590 2615 2526 2507 2506 2400 2421 2387 2374 2354 2343 2590 2667 2615 2639 2593 2496 2088
0 0 0 0 0 0 0 0 81 198 234 534 436 336 758 2067 2364 2338 2410 2310 2026 1755 1690 2107 1917 2264 2211 2071 2157 2228 2379 2486 2638 2724 2705 2622 2282 2248 2156 2178 2181 2230 2670 2745 2724 2677 2651 2597 2464
0 0 0 0 0 0 0 0 0 0 199 415 496 631 906 2285 2228 2438 2392 2011 1611 1346 1439 1679 1933 1848 1625 1361 2110 2405 2542 2458 2517 2562 2538 2450 2519 2506 2369 2697 2336 2281 2380 2402 2738 2693 2609 2510 2389
0 0 0 0 0 0 0 0 21 34 172 1012 1160 1343 1811 2056 2128 2122 2030 1833 1589 1406 1350 1199 1366 1564 1640 1327 2282 2092 2268 2577 2573 2417 2498 2345 1341 1397 1529 1752 2003 2249 2106 2297 2648 2689 2619 2509 2401
0 0 0 0 0 0 38 242 368 275 563 950 803 1432 1732 2030 2038 1944 1899 1774 1639 1613 1439 1241 1235 1315 1554 1692 2000 2189 1860 1782 1492 1309 1459 1883 1290 1258 1446 1791 1923 2087 2149 2231 2624 2730 2651 2305 646
0 0 0 0 0 0 0 364 875 672 1164 1242 848 1502 1876 2072 2000 1132 1284 1126 1061 1036 1211 1512 1560 1705 1441 1539 1846 2032 1902 1890 2164 2323 2004 1950 1356 1395 1510 1178 1153 1567 1941 1708 1556 1694 1676 822 643
0 0 0 0 3 11 347 512 1258 1548 1511 1484 1760 1938 1980 2466 2613 2496 2453 2187 2020 1557 1810 1965 1593 1967 1764 1455 1812 1942 1999 2248 2242 2091 2385 2089 1965 1563 1669 1253 839 861 780 661 687 559 516 594 630
0 0 0 45 203 358 766 1595 2006 2130 2286 2405 2489 2499 2467 2451 2541 2338 1664 1485 1539 1421 1197 1483 1871 2130 2372 2091 1655 1704 1736 1631 1659 1729 1582 1316 1315 1355 1243 1093 947 824 541 515 468 449 426 450 493
0 0 0 119 348 419 1011 1349 1573 2408 2565 2651 2636 2502 2263 1792 1594 1573 1413 1126 1149 1775 1286 1195 1136 1550 1904 2079 1886 1794 2348 2236 1127 914 816 1206 1107 1184 957 834 837 832 573 429 435 377 386 413 374
0 0 75 251 381 484 651 1688 2212 2464 2592 2485 2080 2050 1137 727 585 517 479 456 427 1051 1280 708 297 647 1398 1395 1365 1594 915 462 1235 852 1096 1253 1490 1137 1104 968 872 619 475 775 1059 1075 1111 871 669
0 0 26 149 270 590 829 1778 2121 2342 2361 2258 2104 866 431 279 201 195 87 98 248 173 232 617 576 1190 1958 1803 1709 1325 1228 1095 1117 822 976 745 737 736 844 834 895 664 687 568 417 513 725 1064 1754
0 0 0 167 313 601 1030 1726 2165 2068 2190 2119 1089 285 175 45 33 70 15 35 70 70 30 72 334 350 501 1009 904 1001 1333 1333 1183 850 659 726 820 975 846 895 1004 753 448 257 257 249 337 403 713
0 0 16 178 640 772 1306 1929 1960 1599 1467 1144 507 238 7 0 0 0 6 4 0 17 22 39 44 98 132 171 143 291 176 589 1147 1140 1081 1248 1163 716 901 683 632 508 448 229 139 78 67 136 175
0 0 162 611 711 1070 1738 1754 1739 1178 700 471 223 19 9 20 13 13 0 0 0 0 0 0 0 0 0 0 0 0 0 7 11 68 185 757 1023 869 655 821 785 401 494 538 372 300 226 114 147
0 1 182 266 368 983 1444 1349 1468 1482 785 342 222 106 89 45 9 1 1 0 0 0 0 0 0 0 0 0 0 0 0 0 1 0 8 5 25 395 869 364 404 458 813 639 428 396 538 469 486
0 1 53 217 347 592 845 950 1082 1398 1219 645 499 218 60 46 21 16 2 0 0 0 0 0 0 0 0 0 0 0 0 10 0 0 4 24 24 29 224 526 849 708 853 752 598 733 572 774 659
0 0 0 115 169 280 467 515 1167 1017 1032 888 940 427 160 69 25 15 4 4 3 4 12 5 0 0 0 25 17 49 10 2 0 4 16 11 13 36 69 213 344 537 464 200 147 378 115 588 766
0 0 0 23 29 119 250 215 1246 1061 1081 1128 895 427 336 142 14 8 15 1 0 0 0 0 0 4 28 24 51 36 33 8 0 0 10 145 53 15 31 173 300 441 379 356 232 88 154 282 477
0 0 4 15 21 99 319 272 828 1174 1183 999 1067 601 262 120 45 23 20 3 0 0 0 0 0 2 22 29 44 56 54 44 18 23 1 0 0 9 40 79 309 392 453 421 405 402 116 89 157
0 0 23 29 62 230 288 168 968 761 754 831 851 594 368 142 47 41 38 25 1 0 0 1 3 13 17 41 49 59 90 88 74 60 13 18 10 23 101 79 151 342 412 409 323 268 170 104 255
0 0 0 0 7 96 194 156 885 448 450 673 962 548 202 73 45 36 22 16 1 0 0 0 0 20 53 70 91 113 94 76 75 63 71 62 9 16 7 66 108 273 331 280 404 235 171 149 156
1 0 0 0 2 0 98 338 368 240 342 695 784 359 107 44 11 37 22 11 6 15 0 0 9 48 53 68 80 68 62 39 43 58 0 2 2 0 8 6 26 36 55 22 52 259 378 204 123
0 0 2 18 0 0 20 4 336 351 312 114 217 72 59 53 52 32 29 4 5 0 2 75 129 137 141 127 91 64 27 39 21 0 0 2 4 13 19 35 30 46 46 47 8 10 23 99 104
0 0 0 0 0 0 0 260 16 46 29 24 15 25 13 53 30 4 6 3 13 12 53 154 179 175 127 99 78 17 33 20 6 0 0 3 7 7 16 25 16 2 1 2 2 3 3 48 12
0 0 0 0 2 0 0 51 0 0 0 0 0 2 8 0 0 1 16 32 26 95 148 175 205 162 151 101 23 0 2 4 4 4 3 0 0 0 0 4 0 0 0 0 0 3 1 14 25
CIN
-529 -279 0 -179 -15 -4 0 0 -14 -2 0 -3 -7 -1 -2 -5 -1 -2 -70 -104 -72 -37 -87 -116 -28 -36 -32 -25 -26 -21 -11 -6 -13 -20 -17 -12 -12 -9 -17 -11 0 -3 -1 -16 -46 -47 -61 -70 -77
0 0 0 -6 -5 -1 0 0 0 -6 -10 -10 -11 -1 0 -1 -14 -18 -25 -109 -52 -46 -74 -92 -33 -20 -38 -31 -35 -29 -15 -5 -4 -8 -3 -3 -2 -10 -19 -10 -4 -4 0 -6 -27 -50 -53 -58 -59
0 0 0 0 0 -3 -2 0 0 -3 -10 -21 -1 -28 -12 -19 -50 -38 -75 -70 -26 -32 -52 -45 -16 -17 -31 -48 -44 -48 -41 -22 -12 -8 -1 -1 -6 -12 -19 -11 -3 -4 0 -7 -30 -37 -35 -53 -52
0 0 0 -6 0 0 0 0 0 -7 -5 -8 -4 -1 -44 -99 -66 -67 -81 -59 -22 -3 -16 -35 -4 -13 -39 -57 -57 -49 -53 -38 -22 -14 -9 -7 -15 -18 -15 -10 -1 -3 -6 -20 -26 -26 -43 -57 -61
0 0 0 0 0 0 0 0 -22 -1 -1 0 -5 -7 -35 -94 -102 -74 -65 -57 -13 -2 0 -14 0 -21 -61 -58 -63 -51 -40 -35 -35 -37 -39 -33 -28 -30 -21 -12 -14 -15 -16 -23 -31 -25 -26 -33 -48
0 0 0 0 0 0 0 0 -9 0 -1 -3 -1 -2 -42 -101 -75 -76 -43 -30 -13 -12 -8 -12 -6 -6 -16 -39 -38 -30 -24 -30 -33 -39 -39 -35 -38 -29 -22 -13 -8 -8 -2 -2 -5 -6 -9 -10 -24
0 0 0 0 0 0 0 0 -15 0 -1 -6 -19 -3 -38 -70 -92 -71 -34 -39 -40 -43 -14 -18 -23 -17 -17 -16 -15 -17 -13 -10 -14 -15 -18 -17 -32 -22 -16 -6 -4 -2 0 0 0 0 0 -4 -6
0 0 0 0 0 0 0 0 0 0 -13 -46 -38 -4 -4 -73 -85 -50 -39 -33 -46 -53 -31 -25 -6 -11 -16 -32 -24 -3 -2 0 0 0 0 0 0 0 0 0 -5 -4 0 0 0 0 0 -1 -4
0 0 0 0 0 0 0 0 -40 -33 -11 -73 -92 -107 -119 -126 -66 -34 -23 -39 -56 -61 -38 -35 -37 -7 0 0 -10 -29 -10 0 -1 -1 -2 -1 -3 0 0 -3 -6 -7 -2 0 0 0 0 0 0
0 0 0 0 0 0 -51 -35 -41 -16 -6 -40 -49 -152 -168 -98 -52 -30 -16 -24 -36 -41 -66 -64 -33 -29 -8 -9 -1 0 0 0 0 0 -1 0 0 0 -2 -16 -13 -10 -4 0 0 0 0 0 -13
0 0 0 0 0 0 0 -60 -71 -30 -40 -125 -94 -141 -107 -54 -43 -136 -126 -113 -96 -81 -69 -36 -48 -55 -27 -12 -5 -5 0 -2 -5 0 -2 0 0 0 0 0 0 0 -22 0 -6 -3 -2 -2 0
0 0 0 0 -9 -7 -49 -62 -68 -102 -136 -156 -134 -116 -107 -59 -31 -35 -37 -59 -48 -81 -62 -55 -16 -4 -8 -7 -9 -5 0 0 -5 -10 -9 -3 -3 0 0 -2 0 -6 -14 -14 -14 -6 -3 0 0
0 0 0 -54 -72 -70 -72 -74 -72 -63 -49 -45 -45 -48 -46 -24 -24 -39 -109 -106 -79 -74 -100 -141 -77 0 0 0 -7 -3 -1 0 0 0 -1 -60 -65 -34 -31 -51 -58 -49 -51 -71 -82 -73 -35 -9 -8
0 0 0 -56 -64 -64 -62 -74 -66 -28 -24 -22 -18 -29 -35 -60 -75 -67 -108 -126 -120 -79 -91 -72 -144 -126 -2 -27 -2 -4 -2 0 0 -1 -23 -6 -60 -79 -70 -68 -76 -86 -98 -76 -46 -58 -67 -46 -21
0 0 -52 -48 -46 -51 -53 -33 -37 -11 -5 -23 -62 -37 -84 -74 -160 -173 -199 -256 -172 -107 -81 -142 -234 -159 -126 -122 -11 -5 -38 -1 -8 -61 -71 -28 -29 -123 -97 -70 -39 -67 -31 -5 -8 0 0 0 -10
0 0 -2 -46 -60 -52 -33 -13 -24 -5 0 -3 -5 -140 -231 -246 -226 -214 -228 -263 -217 -249 -219 -112 -101 -73 -83 -93 -42 -20 -10 0 -2 -5 -8 -42 -14 -16 -16 -37 -6 -38 -29 -4 -13 -9 -1 -2 -1
0 0 0 -28 -42 -30 -7 -16 -9 -12 0 0 -70 -83 -63 -47 -58 -275 -302 -256 -242 -253 -257 -213 -120 -97 -56 -33 -22 -3 0 0 0 -4 -15 -4 -11 0 0 -11 -1 -16 -35 -56 -11 -15 -6 -4 0
0 0 -3 -4 -28 -30 -7 -15 -13 -30 -30 -61 -60 -54 -33 0 0 0 -277 -257 -13 -213 -217 -178 -136 -79 -79 -65 -52 -9 -8 0 0 0 0 0 0 -4 -1 -16 -10 -9 -1 -33 -35 -59 -34 -30 -15
0 0 -9 -39 -47 -18 -1 -17 -21 -53 -77 -62 -56 -78 -76 -38 -57 -30 0 0 0 -102 -1 0 0 -1 0 0 0 0 0 0 0 0 0 0 0 0 0 -2 0 -10 0 0 -5 0 -8 -29 -8
0 0 -12 -47 -62 -24 -13 -25 -26 -16 -73 -70 -54 -86 -72 -60 -48 -29 -79 0 0 0 0 0 0 0 0 0 0 0 0 0 0 0 0 0 0 0 0 -2 -2 0 0 0 0 0 0 0 0
0 0 -4 -4 -37 -23 -19 -21 -37 -9 -12 -68 -94 -142 -90 -55 -31 -94 -53 0 0 0 0 0 0 0 0 0 0 0 0 0 0 0 0 0 0 0 -1 0 0 0 0 0 0 0 0 0 0
0 0 0 -7 -1 0 -19 0 -14 -22 -6 -3 -2 -74 -110 -107 -115 -94 0 0 -81 0 0 0 0 0 0 0 0 -1 0 0 0 0 0 0 0 0 0 -1 0 0 0 0 0 0 -3 0 0
0 0 0 -15 -2 -1 -4 0 -1 -16 0 0 0 -39 -49 -65 -84 -13 -8 -17 0 0 0 0 0 -6 -6 -5 -4 -1 -1 0 0 0 0 -1 0 0 0 -21 0 0 0 0 -1 -19 -8 0 0
0 0 -26 -39 -8 0 -2 -1 0 0 0 0 0 -8 -39 -34 -40 -10 -14 -8 0 0 0 0 0 -18 -12 -9 -8 -7 -8 -8 -4 0 0 0 0 0 0 0 0 0 0 0 0 0 -5 -22 -17
0 0 0 -1 -3 0 -16 -1 -13 -30 -20 -1 0 0 -2 -12 -28 -11 -11 -6 -24 0 0 0 0 0 -4 -10 -8 -2 0 0 0 0 0 0 0 0 -1 0 -1 0 0 0 0 0 0 -5 0
0 0 0 0 0 0 -15 0 0 -60 -64 -31 0 0 -9 -27 -18 -8 -8 -8 -2 0 -1 0 0 0 0 0 0 0 0 0 0 0 0 0 -4 -1 0 0 0 0 0 0 0 -1 -4 0 0
0 0 0 0 -1 0 0 -1 -22 -37 -39 -10 -1 -20 -45 -14 -7 -3 -3 -12 -20 -6 0 0 0 0 -3 -8 -2 -2 0 0 0 0 0 0 0 0 0 0 0 0 0 -11 -2 -2 0 -1 -3
0 0 0 0 0 0 0 -1 0 -27 -27 -40 -15 -19 -6 -2 -2 0 -7 -13 -15 0 0 0 0 0 0 -1 -2 -1 -1 0 -2 0 0 -1 0 0 0 0 0 0 0 0 -8 0 0 -1 -1
0 0 0 0 0 0 0 -2 -116 -66 -65 -54 -17 -9 -7 0 -1 -3 -4 0 0 0 0 0 0 0 0 0 0 -4 0 -10 0 0 0 0 0 0 0 0 0 0 0 -1 -1 -1 -1 -2 0
0 0 0 0 0 0 0 -44 0 0 0 0 0 -4 -2 -2 0 0 0 0 0 0 0 0 0 0 0 0 -1 0 0 0 0 0 -1 0 0 0 0 0 0 0 0 0 0 0 -5 -3 -2
Wind_Speed
nan nan nan nan 18 16 nan 3 7 nan 16 8 15 26 17 20 9 8 11 15 15 21 21 22 16 10 11 14 14 16 16 17 15 15 13 15 17 17 19 17 16 16 16 15 15 15 13 10 9
nan nan nan nan 20 nan nan nan nan nan nan nan 21 29 30 18 14 21 17 15 20 24 20 20 16 13 9 11 15 15 17 17 16 15 14 15 17 18 19 19 16 16 16 16 16 15 13 9 8
nan nan nan nan nan nan nan nan nan nan nan nan 21 24 20 18 22 23 23 23 26 25 23 17 13 12 11 10 9 10 13 16 17 17 15 16 16 17 17 17 16 16 16 15 16 15 13 10 10
nan nan nan nan nan nan nan nan nan nan 12 19 16 15 26 20 28 25 32 27 30 25 22 21 10 7 8 7 5 6 11 14 15 17 17 17 17 17 17 17 16 15 16 16 14 14 13 12 11
nan nan nan nan nan nan nan nan nan 3 5 10 14 14 18 21 29 34 32 30 29 28 24 22 13 9 9 7 7 6 10 12 14 15 15 15 16 16 16 17 17 17 16 16 15 14 14 13 13
nan nan nan nan nan nan nan nan nan 2 4 4 4 8 14 27 32 32 34 26 29 27 26 26 18 12 9 8 8 8 8 10 11 12 13 13 14 13 14 14 15 15 15 15 14 13 13 13 13
nan nan nan nan nan nan nan nan nan 8 5 10 12 8 18 26 27 26 28 22 21 23 21 21 20 15 10 6 6 7 10 10 11 11 12 12 14 14 15 14 14 14 14 15 13 12 12 13 13
nan nan nan nan nan nan nan nan nan nan 18 13 6 7 15 22 21 23 26 29 22 21 19 19 16 19 14 13 8 6 9 10 13 14 16 15 15 12 12 15 15 12 11 11 10 10 11 11 12
nan nan nan nan nan nan nan nan nan nan 14 15 14 14 15 19 19 22 27 30 17 14 16 20 19 13 12 9 16 13 10 10 12 12 13 11 8 9 10 11 13 13 9 9 11 11 12 14 13
nan nan nan nan nan nan nan 22 11 8 21 14 7 23 21 19 21 19 20 11 10 11 8 10 18 16 15 14 14 14 14 13 15 14 15 13 11 12 17 17 19 13 10 8 9 9 10 12 15
nan nan nan nan nan nan nan 21 25 17 31 21 21 23 22 26 26 25 23 21 13 12 13 12 11 11 13 15 15 13 14 17 19 18 16 14 15 15 18 17 20 18 20 14 17 17 16 12 15
nan nan nan nan nan nan 11 10 18 28 32 28 25 25 27 31 26 28 25 22 27 25 19 17 16 8 7 12 15 13 12 17 17 22 25 24 22 20 17 18 16 18 19 17 17 19 18 17 18
nan nan nan nan 19 15 12 14 11 11 12 21 22 28 29 34 32 32 35 32 27 33 30 32 36 20 14 14 18 18 17 22 22 23 22 26 27 24 22 19 19 18 20 21 21 22 23 21 20
nan nan nan 15 9 13 17 15 8 11 12 19 20 28 32 37 34 35 35 38 31 34 39 42 44 39 12 22 28 32 27 23 22 19 31 31 34 33 28 25 25 26 26 29 30 28 28 27 27
nan nan nan 13 13 12 8 18 15 17 24 28 27 29 34 37 30 28 30 41 25 29 28 35 43 38 26 45 33 28 33 24 21 26 34 28 28 39 30 31 19 27 32 29 33 37 40 36 31
nan nan nan 9 10 8 5 20 18 19 21 28 28 29 34 32 22 19 nan nan 27 35 35 37 33 31 30 24 31 32 34 38 35 34 36 35 36 33 29 31 30 30 35 25 29 28 36 53 46
nan nan nan 14 9 12 5 26 22 19 21 25 29 31 34 nan nan nan nan nan nan nan nan nan 41 42 42 37 33 34 38 39 39 37 37 34 33 29 31 28 29 32 31 29 26 26 28 17 32
nan nan nan 21 18 17 27 30 23 25 29 31 31 31 nan nan nan nan nan nan nan nan nan nan nan nan 47 48 51 51 46 44 41 37 35 28 29 26 26 27 26 24 23 26 30 nan nan 28 24
nan nan 21 24 23 27 32 31 30 31 34 33 31 nan nan nan nan nan nan nan nan nan nan nan nan nan nan nan nan nan nan nan nan nan 31 27 26 26 27 26 25 26 25 24 27 27 27 32 28
nan nan 26 21 19 23 30 31 31 28 27 29 33 35 nan nan nan nan nan nan nan nan nan nan nan nan nan nan nan nan nan nan nan nan nan nan nan 24 29 28 27 24 24 24 23 25 27 27 33
nan nan nan 21 19 22 23 23 23 23 27 32 34 34 nan nan nan nan nan nan nan nan nan nan nan nan nan nan nan nan nan nan nan nan nan nan nan nan 27 26 29 27 26 26 25 25 25 27 31
nan nan nan 19 19 12 18 9 27 30 29 30 36 36 36 nan nan nan nan nan nan nan nan nan nan nan nan nan nan nan nan nan nan nan nan nan nan nan nan 30 30 32 35 31 30 31 29 28 26
nan nan nan nan nan 9 23 10 34 33 32 34 36 36 36 37 nan nan nan nan nan nan nan nan nan nan nan nan nan nan nan nan nan nan nan 33 nan nan nan 32 33 34 38 33 32 nan 31 32 31
nan nan nan nan nan nan 19 7 32 32 30 35 34 37 39 41 nan nan nan nan nan nan nan nan nan nan nan nan nan nan nan nan nan nan nan nan nan nan nan nan 27 29 32 34 37 36 36 nan 36
nan nan nan nan nan 11 18 14 28 27 27 26 34 42 40 39 nan nan nan nan nan nan nan nan nan nan nan nan nan nan nan nan nan nan nan nan nan nan 28 nan 21 23 24 27 34 39 42 44 44
nan nan nan nan nan nan 22 7 27 24 27 27 31 35 34 nan nan nan nan nan nan nan nan nan nan nan nan nan nan 47 nan nan nan nan nan nan nan nan nan nan 21 22 23 33 35 35 42 48 51
nan nan nan nan nan nan nan 29 32 30 29 29 30 29 30 nan nan nan nan nan nan nan nan nan nan nan nan nan nan nan nan nan nan nan nan nan nan nan nan nan nan nan nan nan nan 38 34 46 56
nan nan nan nan nan nan nan nan 22 27 26 27 30 nan nan nan nan nan nan nan nan nan nan nan 50 51 47 43 nan nan nan nan nan nan nan nan nan nan nan nan nan nan nan nan nan nan nan nan 51
nan nan nan nan nan nan nan 28 nan nan nan nan nan nan nan nan nan nan nan nan nan nan nan 53 50 45 42 nan nan nan nan nan nan nan nan nan nan nan nan nan nan nan nan nan nan nan nan nan nan
nan nan nan nan nan nan nan nan nan nan nan nan nan nan nan nan nan nan nan nan nan nan 50 49 47 43 40 33 nan nan nan nan nan nan nan nan nan nan nan nan nan nan nan nan nan nan nan nan nan
Wind_Direction
nan nan nan nan 102 86 nan 276 71 nan 30 36 57 59 55 59 75 349 330 334 358 340 339 354 353 338 281 274 268 259 261 272 285 290 295 293 295 297 295 297 298 306 308 308 304 302 292 285 268
nan nan nan nan 98 nan nan nan nan nan nan nan 43 48 31 359 359 346 347 333 346 328 337 351 348 349 326 283 275 269 266 266 271 282 287 290 293 296 296 297 303 310 312 308 304 300 293 274 236
nan nan nan nan nan nan nan nan nan nan nan nan 35 31 26 1 354 354 350 350 343 337 332 324 348 342 342 313 279 268 268 267 270 274 279 288 291 294 292 295 301 306 305 304 303 298 283 266 234
nan nan nan nan nan nan nan nan nan nan 10 31 28 358 355 1 4 -0 349 352 353 343 329 306 326 321 328 329 279 264 280 285 288 293 296 296 297 293 293 294 295 298 301 298 296 287 272 256 231
nan nan nan nan nan nan nan nan nan 338 34 359 27 293 352 357 350 351 348 351 346 349 341 330 321 318 317 326 301 290 288 291 294 298 299 303 299 296 295 299 304 303 301 297 293 283 266 245 229
nan nan nan nan nan nan nan nan nan 269 349 283 24 6 343 357 349 351 352 348 344 342 340 328 327 324 315 308 296 290 290 293 296 296 299 294 290 294 296 299 295 294 290 287 283 270 254 240 226
nan nan nan nan nan nan nan nan nan 301 324 272 5 345 347 345 340 340 334 334 334 339 338 337 342 336 326 313 294 273 259 251 253 263 272 275 277 276 274 271 266 263 262 263 260 254 246 234 222
nan nan nan nan nan nan nan nan nan nan 278 326 27 339 308 324 323 320 321 341 329 339 334 335 348 347 348 332 317 273 261 251 238 229 222 233 247 251 263 254 275 270 265 262 262 250 239 231 224
nan nan nan nan nan nan nan nan nan nan 288 261 295 258 282 311 316 322 328 330 324 323 340 344 344 341 341 331 311 316 305 288 277 282 282 273 244 278 292 287 257 278 258 248 238 227 220 216 211
nan nan nan nan nan nan nan 246 232 255 286 256 224 284 299 311 326 316 309 301 297 307 327 355 353 334 334 321 322 315 315 317 311 299 289 290 287 263 242 242 281 290 300 298 282 271 248 228 218
nan nan nan nan nan nan nan 257 236 231 256 242 266 280 293 300 289 300 286 280 246 250 291 329 328 339 343 321 313 307 313 300 297 301 288 278 267 278 286 285 292 296 314 283 304 302 290 284 260
nan nan nan nan nan nan 278 297 256 249 250 255 257 265 273 282 290 293 274 260 268 242 236 233 259 299 324 307 299 290 286 296 299 304 303 296 287 281 281 274 280 284 288 284 275 267 268 261 254
nan nan nan nan 300 288 294 262 250 253 232 245 249 256 267 277 281 285 284 289 261 269 262 264 255 227 224 268 264 259 254 259 266 276 278 279 282 280 274 279 282 288 288 284 280 275 268 263 264
nan nan nan 320 309 292 286 262 306 259 272 258 265 262 263 265 270 282 280 267 251 258 274 279 288 279 260 277 250 252 236 239 259 276 282 277 277 275 279 281 287 282 284 285 279 270 267 267 264
nan nan nan 315 323 315 294 263 259 281 273 271 269 272 274 275 275 268 276 283 243 268 272 279 278 310 306 268 268 292 292 292 296 310 325 334 299 307 316 314 294 292 294 272 296 260 268 256 254
nan nan nan 307 344 269 359 283 284 301 274 274 277 280 287 280 276 281 nan nan 278 283 277 276 280 294 265 278 269 290 299 313 317 317 308 309 308 306 306 303 299 286 293 276 284 280 293 251 248
nan nan nan 307 310 306 309 292 300 303 300 294 289 292 296 nan nan nan nan nan nan nan nan nan 282 286 291 292 293 299 312 314 306 304 302 312 311 305 302 295 290 287 282 279 274 278 291 268 272
nan nan nan 296 284 315 295 296 304 307 304 298 296 296 nan nan nan nan nan nan nan nan nan nan nan nan 293 298 295 294 299 306 304 301 304 304 304 307 303 297 290 290 291 280 279 nan nan 274 288
nan nan 280 288 267 285 295 302 303 307 305 303 302 nan nan nan nan nan nan nan nan nan nan nan nan nan nan nan nan nan nan nan nan nan 301 304 306 299 296 292 293 294 287 283 270 265 272 273 273
nan nan 295 294 301 302 308 303 306 310 306 303 308 310 nan nan nan nan nan nan nan nan nan nan nan nan nan nan nan nan nan nan nan nan nan nan nan 291 295 298 292 284 281 278 277 269 259 259 261
nan nan nan 298 313 309 316 328 332 320 316 311 309 310 nan nan nan nan nan nan nan nan nan nan nan nan nan nan nan nan nan nan nan nan nan nan nan nan 282 280 282 277 274 268 262 267 259 254 258
nan nan nan 322 346 349 5 295 332 330 324 317 317 312 310 nan nan nan nan nan nan nan nan nan nan nan nan nan nan nan nan nan nan nan nan nan nan nan nan 273 272 274 273 266 262 259 259 252 253
nan nan nan nan nan 346 343 24 290 323 325 314 313 308 304 303 nan nan nan nan nan nan nan nan nan nan nan nan nan nan nan nan nan nan nan 279 nan nan nan 265 263 264 268 262 257 nan 252 255 252
nan nan nan nan nan nan 303 26 308 314 312 308 311 305 305 303 nan nan nan nan nan nan nan nan nan nan nan nan nan nan nan nan nan nan nan nan nan nan nan nan 255 259 263 261 256 251 246 nan 243
nan nan nan nan nan 251 307 356 258 290 291 294 303 306 307 302 nan nan nan nan nan nan nan nan nan nan nan nan nan nan nan nan nan nan nan nan nan nan 268 nan 255 255 258 261 261 257 247 240 237
nan nan nan nan nan nan 306 298 293 296 297 302 295 299 297 nan nan nan nan nan nan nan nan nan nan nan nan nan nan 291 nan nan nan nan nan nan nan nan nan nan 269 259 253 250 249 251 251 242 240
nan nan nan nan nan nan nan 310 313 307 300 301 299 296 290 nan nan nan nan nan nan nan nan nan nan nan nan nan nan nan nan nan nan nan nan nan nan nan nan nan nan nan nan nan nan 249 251 247 240
nan nan nan nan nan nan nan nan 279 302 303 306 306 nan nan nan nan nan nan nan nan nan nan nan 302 303 309 308 nan nan nan nan nan nan nan nan nan nan nan nan nan nan nan nan nan nan nan nan 248
nan nan nan nan nan nan nan 280 nan nan nan nan nan nan nan nan nan nan nan nan nan nan nan 310 313 308 305 nan nan nan nan nan nan nan nan nan nan nan nan nan nan nan nan nan nan nan nan nan nan
nan nan nan nan nan nan nan nan nan nan nan nan nan nan nan nan nan nan nan nan nan nan 315 313 308 314 312 309 nan nan nan nan nan nan nan nan nan nan nan nan nan nan nan nan nan nan nan nan nan